FW7364 Weather Reports


time (UTC)temp
C
wind
direction
speed
KPH
gust
KPH
rain 1hr
cm
rain 24hr
cm
rain mn
cm
humidity
%
barometer
mb
20260506191835 20 338 8.0 19.3 0.00 0.00 0.00 68 1018.6
20260506191332 21 345 6.4 19.3 0.00 0.00 0.00 65 1018.6
20260506191050 21 30 4.8 12.9 0.00 0.00 0.00 67 1018.6
20260506190333 21 310 6.4 20.9 0.00 0.00 0.00 65 1018.7
20260506185832 21 22 8.0 20.9 0.00 0.00 0.00 67 1018.8
20260506185551 20 321 6.4 16.1 0.00 0.00 0.00 68 1018.8
20260506184829 20 317 8.0 16.1 0.00 0.00 0.00 68 1018.8
20260506184330 21 320 8.0 16.1 0.00 0.00 0.00 70 1018.9
20260506183832 20 278 6.4 17.7 0.00 0.00 0.00 71 1018.9
20260506183329 20 349 8.0 17.7 0.00 0.00 0.00 71 1019.0
20260506182828 20 298 8.0 17.7 0.00 0.00 0.00 72 1019.1
20260506182330 20 307 6.4 16.1 0.00 0.00 0.00 74 1019.1
20260506181830 20 256 6.4 16.1 0.00 0.00 0.00 72 1019.2
20260506181324 19 313 4.8 12.9 0.00 0.00 0.00 73 1019.2
20260506180826 18 307 6.4 12.9 0.00 0.00 0.00 73 1019.2
20260506180326 18 295 6.4 12.9 0.00 0.00 0.00 73 1019.1
20260506180054 19 294 4.8 12.9 0.00 0.00 0.00 74 1019.2
20260506175324 19 278 4.8 14.5 0.00 0.00 0.00 73 1019.2
20260506174823 19 296 8.0 14.5 0.00 0.00 0.00 74 1019.3
20260506174324 18 312 6.4 14.5 0.00 0.00 0.00 74 1019.3
20260506174048 18 305 6.4 11.3 0.00 0.00 0.00 76 1019.2
20260506173326 18 295 6.4 12.9 0.00 0.00 0.00 74 1019.2
20260506172823 18 315 8.0 12.9 0.00 0.00 0.00 76 1019.3
20260506172326 18 314 8.0 12.9 0.00 0.00 0.00 76 1019.2
20260506171823 17 270 9.7 16.1 0.00 0.00 0.00 78 1019.2
20260506171545 17 279 9.7 16.1 0.00 0.00 0.00 79 1019.2
20260506170825 17 272 9.7 16.1 0.00 0.00 0.00 76 1019.3
20260506170325 17 287 11.3 17.7 0.00 0.00 0.00 78 1019.3
20260506165828 17 239 11.3 17.7 0.00 0.00 0.00 79 1019.3
20260506165326 17 262 11.3 16.1 0.00 0.00 0.00 79 1019.3
20260506164828 17 278 9.7 16.1 0.00 0.00 0.00 79 1019.3
20260506164321 17 255 9.7 16.1 0.00 0.00 0.00 78 1019.3
20260506164040 16 299 11.3 16.1 0.00 0.00 0.00 78 1019.2
20260506163309 16 237 11.3 16.1 0.00 0.00 0.00 80 1019.2
20260506162804 16 282 9.7 16.1 0.00 0.00 0.00 80 1019.2
20260506162259 16 255 8.0 16.1 0.00 0.00 0.00 82 1019.2
20260506162016 16 272 8.0 16.1 0.00 0.00 0.00 82 1019.3
20260506161248 15 290 9.7 16.1 0.00 0.00 0.00 82 1019.3
20260506160747 15 286 8.0 14.5 0.00 0.00 0.00 83 1019.4
20260506160248 15 294 9.7 12.9 0.00 0.00 0.00 83 1019.3
20260506155748 15 263 11.3 14.5 0.00 0.00 0.00 84 1019.4
20260506155245 15 246 11.3 14.5 0.00 0.00 0.00 84 1019.4
20260506154743 15 259 9.7 14.5 0.00 0.00 0.00 84 1019.4
20260506154243 15 243 9.7 14.5 0.00 0.00 0.00 85 1019.3
20260506153743 15 265 8.0 14.5 0.00 0.00 0.00 85 1019.4
20260506153242 15 257 6.4 14.5 0.00 0.00 0.00 86 1019.5
20260506152743 14 263 4.8 11.3 0.00 0.00 0.00 86 1019.4
20260506152243 14 265 4.8 9.7 0.00 0.00 0.00 87 1019.3
20260506151743 14 261 6.4 11.3 0.00 0.00 0.00 87 1019.4
20260506151459 14 274 8.0 14.5 0.00 0.00 0.00 87 1019.4
20260506150744 14 261 8.0 14.5 0.00 0.00 0.00 87 1019.4
20260506150239 14 256 6.4 12.9 0.00 0.00 0.00 88 1019.5
20260506145739 14 265 6.4 11.3 0.00 0.00 0.00 88 1019.4
20260506145240 14 255 6.4 11.3 0.00 0.00 0.00 88 1019.4
20260506144735 13 258 4.8 9.7 0.00 0.00 0.00 88 1019.4
20260506144228 13 276 1.6 6.4 0.00 0.00 0.00 89 1019.4
20260506143722 13 276 1.6 6.4 0.00 0.00 0.00 89 1019.2
20260506143216 13 277 3.2 6.4 0.00 0.00 0.00 89 1019.3
20260506142710 13 278 3.2 6.4 0.00 0.00 0.00 89 1019.2
20260506142204 13 278 0.0 6.4 0.00 0.00 0.00 89 1019.1
20260506141658 13 279 0.0 0.0 0.00 0.00 0.00 90 1019.1
20260506141153 13 279 0.0 0.0 0.00 0.00 0.00 90 1018.9
20260506140647 13 279 0.0 0.0 0.00 0.00 0.00 90 1018.8
20260506140140 13 279 0.0 0.0 0.00 0.00 0.00 90 1018.8
20260506135635 13 279 0.0 0.0 0.00 0.00 0.00 90 1018.8
20260506135128 13 279 0.0 0.0 0.00 0.00 0.00 90 1018.7
20260506134842 13 279 0.0 0.0 0.00 0.00 0.00 90 1018.8
20260506134118 13 279 0.0 0.0 0.00 0.00 0.00 90 1018.7
20260506133610 13 279 0.0 0.0 0.00 0.00 0.00 90 1018.7
20260506133104 13 279 0.0 0.0 0.00 0.00 0.00 90 1018.7
20260506132558 13 279 0.0 0.0 0.00 0.00 0.00 90 1018.7
20260506132052 13 279 0.0 0.0 0.00 0.00 0.00 90 1018.6
20260506131547 13 279 0.0 0.0 0.00 0.00 0.00 91 1018.6
20260506131040 13 279 0.0 0.0 0.00 0.00 0.00 91 1018.5
20260506130534 13 279 0.0 0.0 0.00 0.00 0.00 92 1018.4
20260506130251 13 279 0.0 0.0 0.00 0.00 0.00 93 1018.5
20260506125522 13 278 0.0 0.0 0.00 0.00 0.00 93 1018.5
20260506125016 13 278 0.0 0.0 0.00 0.00 0.00 94 1018.4
20260506124510 13 278 0.0 0.0 0.00 0.00 0.00 93 1018.4
20260506124004 13 278 0.0 0.0 0.00 0.00 0.00 93 1018.4
20260506123459 13 278 0.0 0.0 0.00 0.00 0.00 94 1018.4
20260506122952 13 278 0.0 0.0 0.00 0.00 0.00 94 1018.5
20260506122929 13 278 0.0 0.0 0.00 0.00 0.00 94 1018.4
20260506122209 13 278 0.0 0.0 0.00 0.00 0.00 94 1018.3
20260506121434 13 278 0.0 0.0 0.00 0.00 0.00 95 1018.2
20260506120928 13 278 0.0 0.0 0.00 0.00 0.00 95 1018.1
20260506120422 13 278 0.0 0.0 0.00 0.00 0.00 95 1018.1
20260506120138 13 287 0.0 0.0 0.00 0.00 0.00 95 1018.0
20260506115410 13 287 0.0 0.0 0.00 0.00 0.00 95 1018.0
20260506114904 13 288 0.0 0.0 0.00 0.00 0.00 94 1018.0
20260506114358 13 288 0.0 0.0 0.00 0.00 0.00 94 1018.1
20260506114114 13 288 0.0 0.0 0.00 0.00 0.00 94 1018.1
20260506113607 13 288 0.0 0.0 0.00 0.00 0.00 94 1018.1
20260506112841 13 288 0.0 0.0 0.00 0.00 0.00 94 1018.1
20260506112334 13 288 0.0 0.0 0.00 0.00 0.00 93 1018.1
20260506111829 13 288 0.0 0.0 0.00 0.00 0.00 93 1018.2
20260506111323 13 288 0.0 0.0 0.00 0.00 0.00 93 1018.0
20260506110817 13 288 0.0 0.0 0.00 0.00 0.00 93 1018.0
20260506110310 13 288 0.0 0.0 0.00 0.00 0.00 93 1017.8
20260506110028 13 288 0.0 0.0 0.00 0.03 0.00 92 1017.8
20260506105258 13 288 0.0 0.0 0.00 0.03 0.00 92 1017.7
20260506104751 13 288 0.0 0.0 0.00 0.03 0.00 92 1017.8
20260506104249 13 288 0.0 0.0 0.00 0.03 0.00 92 1017.7
20260506103750 13 288 0.0 0.0 0.00 0.03 0.00 92 1017.7
20260506103514 13 288 0.0 0.0 0.00 0.03 0.00 93 1017.7
20260506102749 13 288 0.0 0.0 0.00 0.05 0.00 93 1017.7
20260506102248 13 288 0.0 0.0 0.00 0.05 0.00 93 1017.6
20260506101749 13 288 0.0 0.0 0.00 0.05 0.00 93 1017.5
20260506101514 13 288 0.0 0.0 0.00 0.08 0.00 92 1017.6
20260506100749 13 288 0.0 0.0 0.00 0.08 0.00 92 1017.5
20260506100251 13 288 0.0 0.0 0.00 0.08 0.00 92 1017.6
20260506095750 13 288 0.0 0.0 0.00 0.08 0.00 92 1017.5
20260506095511 13 288 0.0 0.0 0.00 0.08 0.00 92 1017.6
20260506094750 13 288 0.0 0.0 0.00 0.08 0.00 92 1017.5
20260506094249 13 288 0.0 0.0 0.00 0.10 0.00 93 1017.5
20260506093748 13 288 0.0 0.0 0.00 0.10 0.00 93 1017.4
20260506093249 13 288 0.0 0.0 0.00 0.13 0.00 93 1017.3
20260506092749 13 284 0.0 0.0 0.00 0.15 0.00 94 1017.4
20260506092250 13 284 0.0 0.0 0.00 0.18 0.00 94 1017.4
20260506091746 13 284 0.0 0.0 0.00 0.23 0.00 93 1017.3
20260506091241 13 284 0.0 0.0 0.00 0.28 0.00 93 1017.4
20260506090736 13 284 0.0 0.0 0.00 0.36 0.00 92 1017.5
20260506090230 13 284 0.0 0.0 0.00 0.41 0.00 92 1017.5
20260506085723 13 284 0.0 0.0 0.00 0.43 0.00 92 1017.5
20260506085218 13 284 0.0 0.0 0.00 0.43 0.00 92 1017.6
20260506084711 13 284 0.0 0.0 0.00 0.43 0.00 92 1017.5
20260506084205 13 284 0.0 0.0 0.00 0.46 0.00 92 1017.6
20260506083659 13 284 0.0 0.0 0.00 0.46 0.00 92 1017.6
20260506083154 13 284 0.0 0.0 0.00 0.48 0.00 92 1017.7
20260506082914 13 284 0.0 0.0 0.00 0.48 0.00 91 1017.7
20260506082141 13 284 0.0 0.0 0.00 0.48 0.00 91 1017.8
20260506081635 13 284 1.6 4.8 0.00 0.48 0.00 91 1017.9
20260506081129 13 284 3.2 4.8 0.00 0.48 0.00 92 1017.8
20260506080849 13 283 3.2 6.4 0.00 0.48 0.00 92 1017.7
20260506080117 13 283 4.8 9.7 0.00 0.48 0.00 92 1017.6
20260506073042 12 301 4.8 11.3 0.00 0.53 0.00 92 1017.2
20260506072535 12 268 4.8 8.0 0.00 0.56 0.00 93 1017.2
20260506072029 12 244 4.8 8.0 0.00 0.56 0.00 93 1017.1
20260506071749 12 240 6.4 11.3 0.00 0.56 0.00 93 1017.0
20260506071017 12 251 8.0 11.3 0.00 0.56 0.00 93 1017.1
20260506070952 12 247 8.0 9.7 0.00 0.56 0.00 93 1017.0
20260506062447 13 286 6.4 11.3 0.00 0.58 0.56 89 1016.6
20260506062212 13 290 6.4 11.3 0.00 0.61 0.56 89 1016.7
20260506061447 13 301 6.4 11.3 0.00 0.61 0.56 89 1016.6
20260506060947 13 298 6.4 9.7 0.00 0.61 0.56 89 1016.6
20260506060447 13 290 8.0 12.9 0.00 0.61 0.56 88 1016.5
20260506060212 13 295 8.0 12.9 0.00 0.61 0.56 88 1016.4
20260506051146 14 273 6.4 11.3 0.00 0.64 0.56 85 1016.0
20260506050416 14 284 6.4 12.9 0.00 0.64 0.56 84 1015.9
20260506044858 15 277 11.3 19.3 0.00 0.64 0.56 84 1015.7
20260506044601 15 261 9.7 16.1 0.00 0.64 0.56 86 1015.6
20260506044447 15 271 11.3 16.1 0.00 0.64 0.56 86 1015.7
20260506043340 15 246 6.4 9.7 0.00 0.64 0.56 87 1015.5
20260506042835 15 248 6.4 8.0 0.00 0.64 0.56 86 1015.5
20260506042328 15 249 4.8 8.0 0.00 0.64 0.56 86 1015.4
20260506041822 15 249 4.8 8.0 0.00 0.64 0.56 86 1015.5
20260506041321 15 249 6.4 8.0 0.00 0.64 0.56 87 1015.3
20260506040806 16 249 6.4 8.0 0.00 0.64 0.56 86 1015.3
20260506040524 16 250 8.0 9.7 0.00 0.64 0.56 87 1015.3
20260506035754 16 246 8.0 9.7 0.00 0.64 0.56 87 1015.2
20260506035248 16 244 6.4 9.7 0.00 0.64 0.56 88 1015.2
20260506034742 16 232 6.4 9.7 0.00 0.64 0.56 87 1015.0
20260506034236 16 232 6.4 9.7 0.00 0.64 0.56 86 1015.0
20260506033733 16 233 6.4 8.0 0.00 0.64 0.56 87 1015.0
20260506033224 16 232 4.8 6.4 0.00 0.64 0.56 87 1015.0
20260506032718 16 232 3.2 4.8 0.00 0.64 0.56 87 1015.0
20260506032212 16 232 3.2 4.8 0.00 0.64 0.56 86 1015.0
20260506031925 16 232 1.6 4.8 0.00 0.64 0.56 86 1014.9
20260506031424 16 232 3.2 3.2 0.00 0.64 0.56 85 1014.9
20260506030655 16 232 4.8 6.4 0.00 0.64 0.56 85 1014.9
20260506030410 16 232 4.8 6.4 0.00 0.64 0.56 85 1014.8
20260506025642 16 232 6.4 8.0 0.00 0.64 0.56 84 1014.6
20260506025405 16 232 6.4 8.0 0.00 0.64 0.56 84 1014.4
20260506024642 16 232 6.4 8.0 0.00 0.64 0.56 84 1014.4
20260506024141 16 221 4.8 6.4 0.00 0.64 0.56 83 1014.4
20260506023641 16 221 4.8 6.4 0.00 0.64 0.56 82 1014.4
20260506023410 16 219 4.8 6.4 0.00 0.64 0.56 81 1014.4
20260506022639 16 251 3.2 6.4 0.00 0.64 0.56 82 1014.4
20260506022410 16 251 3.2 8.0 0.00 0.64 0.56 81 1014.2
20260506021640 17 251 4.8 8.0 0.00 0.64 0.56 80 1014.3
20260506021137 17 249 3.2 8.0 0.00 0.64 0.56 80 1014.1
20260506020635 17 214 3.2 6.4 0.00 0.64 0.56 80 1014.1
20260506020406 17 213 4.8 9.7 0.00 0.64 0.56 80 1014.2
20260506015635 17 211 6.4 9.7 0.00 0.64 0.56 78 1014.2
20260506015354 17 194 6.4 8.0 0.00 0.64 0.56 78 1014.1
20260506014857 17 203 6.4 8.0 0.00 0.64 0.56 78 1014.1
20260506014401 17 212 6.4 11.3 0.00 0.64 0.56 77 1014.0
20260506013629 17 197 6.4 12.9 0.00 0.64 0.56 77 1014.0
20260506013129 17 194 6.4 12.9 0.00 0.64 0.56 76 1014.0
20260506012630 17 201 6.4 12.9 0.00 0.64 0.56 77 1014.0
20260506012124 17 199 8.0 12.9 0.00 0.64 0.56 77 1014.0
20260506011618 17 211 8.0 12.9 0.00 0.64 0.56 76 1014.0
20260506011114 17 208 6.4 12.9 0.00 0.64 0.56 76 1013.9
20260506010616 17 197 6.4 9.7 0.00 0.64 0.56 76 1014.0
20260506010344 17 218 6.4 9.7 0.00 0.64 0.56 78 1013.9
20260506005616 17 230 8.0 9.7 0.00 0.64 0.56 77 1014.0
20260506005115 17 226 8.0 11.3 0.00 0.64 0.56 79 1013.9
20260506004617 17 230 8.0 11.3 0.00 0.64 0.56 78 1013.9
20260506004116 17 236 8.0 9.7 0.00 0.64 0.56 77 1014.0
20260506003614 17 234 8.0 9.7 0.00 0.64 0.56 78 1013.9
20260506003116 17 224 6.4 9.7 0.00 0.64 0.56 77 1013.9
20260506002615 17 236 3.2 8.0 0.00 0.64 0.56 76 1013.9
20260506002346 17 244 1.6 6.4 0.00 0.64 0.56 74 1013.9
20260506001614 18 246 1.6 4.8 0.00 0.64 0.56 74 1013.8
20260506001116 18 245 3.2 4.8 0.00 0.64 0.56 75 1013.8
20260506000616 17 245 3.2 4.8 0.00 0.64 0.56 73 1013.8
20260506000116 18 246 3.2 8.0 0.00 0.64 0.56 74 1013.9
20260505235841 18 245 6.4 12.9 0.00 0.64 0.56 74 1013.8
20260505235116 18 246 4.8 12.9 0.00 0.64 0.56 74 1013.7
20260505234617 18 273 4.8 11.3 0.00 0.64 0.56 74 1013.7
20260505234110 18 246 6.4 11.3 0.00 0.64 0.56 76 1013.7
20260505233605 18 265 6.4 11.3 0.00 0.64 0.56 73 1013.9
20260505233321 18 259 4.8 12.9 0.00 0.64 0.56 73 1013.7
20260505232556 18 269 6.4 16.1 0.00 0.64 0.56 76 1013.7
20260505232058 18 250 8.0 16.1 0.00 0.64 0.56 74 1013.8
20260505231554 18 261 6.4 14.5 0.00 0.64 0.56 77 1013.8
20260505231055 17 253 6.4 14.5 0.00 0.64 0.56 76 1013.8
20260505230554 18 263 6.4 14.5 0.00 0.64 0.56 76 1013.8
20260505230055 17 251 6.4 14.5 0.00 0.64 0.56 79 1013.8
20260505225555 17 252 8.0 14.5 0.00 0.64 0.56 76 1013.9
20260505225324 17 213 8.0 14.5 0.00 0.64 0.56 79 1013.9
20260505224821 17 236 6.4 14.5 0.00 0.64 0.56 79 1014.0
20260505224056 17 270 6.4 12.9 0.00 0.64 0.56 80 1014.0
20260505223554 17 245 6.4 12.9 0.00 0.64 0.56 79 1014.1
20260505223056 16 228 6.4 9.7 0.00 0.64 0.56 81 1014.1
20260505222555 16 238 3.2 8.0 0.00 0.64 0.56 81 1014.3
20260505222057 16 248 3.2 6.4 0.00 0.64 0.56 80 1014.3
20260505221558 16 240 3.2 8.0 0.00 0.64 0.56 81 1014.4
20260505221058 16 240 4.8 8.0 0.00 0.64 0.56 81 1014.3
20260505220546 16 260 6.4 9.7 0.00 0.64 0.56 82 1014.4
20260505220040 16 263 4.8 9.7 0.00 0.64 0.56 83 1014.4
20260505215805 16 251 6.4 9.7 0.00 0.64 0.56 84 1014.4
20260505215032 15 228 8.0 12.9 0.00 0.64 0.56 83 1014.4
20260505214522 15 217 8.0 12.9 0.00 0.64 0.56 85 1014.5
20260505214016 15 254 9.7 14.5 0.00 0.64 0.56 86 1014.4
20260505213509 15 249 9.7 14.5 0.00 0.64 0.56 87 1014.5
20260505213005 15 259 8.0 12.9 0.00 0.64 0.56 86 1014.5
20260505212723 15 263 6.4 12.9 0.00 0.64 0.56 86 1014.6
20260505211953 15 240 4.8 9.7 0.00 0.64 0.56 86 1014.6
20260505211446 15 236 4.8 9.7 0.00 0.64 0.56 86 1014.6
20260505210940 15 236 6.4 11.3 0.00 0.64 0.56 86 1014.6
20260505210437 15 236 6.4 11.3 0.00 0.64 0.56 86 1014.6
20260505205934 15 255 6.4 12.9 0.00 0.64 0.56 86 1014.6
20260505205422 15 238 8.0 14.5 0.00 0.64 0.56 86 1014.6
20260505204916 15 256 9.7 16.1 0.00 0.64 0.56 85 1014.6
20260505204411 15 242 9.7 16.1 0.00 0.64 0.56 85 1014.7
20260505203905 16 232 8.0 16.1 0.00 0.64 0.56 83 1014.7
20260505203358 16 234 6.4 14.5 0.00 0.64 0.56 84 1014.6
20260505202852 16 209 8.0 14.5 0.00 0.64 0.56 85 1014.6
20260505202346 15 157 6.4 14.5 0.00 0.64 0.56 84 1014.6
20260505201840 15 151 6.4 12.9 0.00 0.64 0.56 86 1014.7
20260505201334 15 186 6.4 11.3 0.00 0.64 0.56 86 1014.6
20260505200827 15 162 6.4 9.7 0.00 0.64 0.56 86 1014.7
20260505200322 15 141 6.4 9.7 0.00 0.64 0.56 87 1014.7
20260505195816 15 110 4.8 9.7 0.00 0.64 0.56 86 1014.8
20260505195310 15 142 3.2 8.0 0.00 0.64 0.56 88 1014.8
20260505194804 15 151 4.8 8.0 0.00 0.64 0.56 88 1014.8
20260505194258 15 146 4.8 8.0 0.00 0.64 0.56 88 1014.9
20260505193753 14 175 4.8 8.0 0.00 0.64 0.56 88 1014.8
20260505193246 14 170 4.8 8.0 0.00 0.64 0.56 88 1014.8
20260505193004 14 192 4.8 6.4 0.00 0.64 0.56 88 1014.8
20260505192234 14 164 4.8 8.0 0.00 0.64 0.56 89 1014.8